Tracking 19572 objects as of 23-Feb-2019
HD Live streaming from Space Station
objects crossing your sky now

FLOCK 2K 28

Track FLOCK 2K 28 now!
10-day predictions
FLOCK 2K 28 is classified as:


NORAD ID: 42880
Int'l Code: 2017-042BH
Perigee: 459.5 km
Apogee: 474.2 km
Inclination: 97.0 °
Period: 93.8 minutes
Semi major axis: 6837 km
RCS: Unknown
Launch date: July 14, 2017
Source: United States (US)
Launch site: TYURATAM MISSILE AND SPACE COMPLEX (TTMTR)
aabbcc
Your satellite tracking list
Your tracking list is empty




NASA's NSSDC Master Catalog

Two Line Element Set (TLE):
1 42880U 17042BH  19053.66075361  .00001418  00000-0  43303-4 0  9999
2 42880  96.9560 301.0263 0010715 282.3724  77.6321 15.35401762 90027
Source of the keplerian elements: AFSPC